Temperature
22 23 23 23 23 23 23 22 22 22 22 22 22 22 22 21 21 21 20 20 20 20 19 19 18 18 18 18 18 17 17 17 17 17 17 16 16 16 16 16 16 16 16 16
23 22 23 23 22 22 22 22 22 22 22 22 22 22 22 21 21 21 21 20 20 20 20 19 18 18 18 18 18 18 17 17 17 17 17 16 16 16 16 16 16 16 16 16
23 22 22 23 22 22 22 22 22 22 22 22 22 22 22 22 21 20 20 20 20 20 20 19 18 18 18 18 18 18 17 17 17 17 17 17 16 16 16 16 16 16 16 16
22 22 22 22 22 22 22 22 22 22 22 22 22 22 22 22 22 21 21 20 20 19 19 19 19 18 18 18 18 18 18 17 17 17 17 16 16 16 16 16 16 16 16 16
22 22 22 22 22 22 22 22 22 22 22 22 22 22 23 22 22 22 21 20 20 19 19 19 19 18 18 18 18 18 18 17 17 17 17 16 16 16 16 16 16 16 16 16
22 22 22 22 22 22 22 22 22 22 23 22 22 22 22 23 22 22 22 21 20 19 19 19 19 18 18 18 18 18 17 17 17 17 16 16 16 16 16 16 16 16 15 15
22 22 22 22 22 22 22 22 22 22 22 22 22 22 22 23 22 22 22 21 20 19 19 19 19 18 18 18 18 18 17 17 17 17 17 16 16 16 16 16 16 16 15 15
22 22 22 22 22 22 22 22 22 21 22 22 22 22 23 22 22 21 21 20 20 19 19 19 18 18 18 18 18 18 18 17 17 17 17 17 16 16 16 16 16 16 15 15
22 22 22 22 22 23 22 22 22 22 22 22 22 23 23 22 22 22 21 20 20 19 19 18 18 18 18 18 18 18 18 17 17 17 17 17 16 16 16 16 16 16 15 15
23 22 22 22 22 22 23 22 22 22 21 21 22 22 22 22 22 22 21 20 20 19 18 18 18 18 18 18 18 18 17 17 17 17 17 16 16 16 16 16 16 15 15 15
22 22 22 22 22 22 22 22 22 22 22 22 21 22 23 22 22 21 21 20 19 19 18 18 18 17 17 17 18 18 17 17 17 17 16 16 16 16 16 16 15 15 15 15
21 22 22 22 22 21 22 22 22 21 21 22 22 22 22 22 21 21 20 20 19 18 18 17 17 17 17 17 17 17 17 17 17 16 16 16 16 16 15 15 15 15 15 15
21 21 21 21 21 21 21 21 21 22 22 22 21 22 22 22 21 20 20 19 19 18 17 17 17 17 17 17 17 17 17 17 17 16 16 16 15 15 15 15 15 15 15 14
20 21 21 21 21 21 21 21 21 21 21 21 22 22 22 22 21 20 19 19 18 17 17 17 16 16 16 16 16 16 16 16 16 16 16 16 15 15 15 15 15 15 14 14
21 21 21 21 21 20 21 21 20 21 21 21 22 22 22 22 21 20 19 18 17 17 17 16 16 16 16 16 16 16 16 16 16 16 16 16 15 15 15 15 15 14 14 14
20 20 21 20 20 20 20 20 20 20 21 21 21 21 22 21 20 20 19 18 17 17 16 16 16 16 16 16 16 16 16 16 16 16 15 16 15 15 15 15 15 14 14 14
20 20 20 20 20 20 20 21 21 21 21 21 21 22 21 21 20 19 19 18 17 17 16 16 16 16 15 15 15 15 15 15 15 15 15 15 15 15 15 15 14 14 14 14
20 20 20 20 20 19 22 21 21 21 21 21 21 21 21 20 19 18 18 17 17 16 16 15 15 15 15 15 15 15 15 15 15 15 15 15 15 15 14 14 14 14 13 13
19 19 19 19 19 20 21 20 20 20 21 21 21 20 19 18 18 18 17 16 16 16 15 15 15 15 15 15 15 15 15 14 14 14 15 15 15 14 14 14 14 14 13 13
18 19 19 19 19 19 21 20 19 20 20 20 20 19 19 18 20 19 16 16 15 15 15 15 14 14 14 14 14 14 14 14 14 14 14 14 14 14 14 14 14 13 13 13
18 18 18 19 19 20 20 18 19 19 20 19 18 18 18 18 19 17 16 15 15 15 15 14 14 14 14 14 14 14 14 14 14 14 14 14 14 14 14 13 13 13 13 12
19 19 18 19 18 19 18 18 19 20 18 18 17 17 17 17 16 15 15 15 14 14 14 14 14 14 14 14 14 13 13 13 13 13 13 13 13 13 13 13 13 12 12 12
18 19 19 19 19 18 17 17 17 16 17 17 16 16 16 15 15 15 15 14 14 14 14 14 14 14 13 13 13 13 13 13 13 13 13 13 13 13 13 12 12 12 12 11
18 17 17 18 18 17 16 16 15 15 15 15 15 15 15 15 15 14 14 14 14 14 14 13 13 13 13 13 13 13 13 12 12 12 12 12 12 12 12 12 12 12 11 11
17 16 17 17 18 16 16 15 15 15 15 14 15 14 14 14 14 14 14 14 13 13 13 13 13 13 13 13 12 12 12 12 12 12 12 12 12 12 12 12 11 11 11 11
16 16 17 17 17 17 17 15 15 14 14 14 14 14 14 14 14 13 13 13 13 13 13 13 12 12 12 12 12 12 12 12 11 11 11 11 11 11 11 11 11 11 10 10
Wind_Speed
2 3 2 1 1 1 2 1 1 1 1 1 1 1 2 3 4 4 5 5 5 5 5 5 6 7 7 7 6 6 7 6 5 4 4 3 3 2 2 2 2 2 2 2
4 2 0 1 2 3 3 1 1 1 1 2 1 2 2 3 4 4 4 4 4 4 5 5 6 7 8 8 7 7 7 6 6 4 3 3 2 2 2 2 2 2 2 2
3 2 1 3 4 3 2 2 1 1 1 1 2 1 3 2 2 2 3 3 3 4 5 6 7 7 7 7 8 7 7 7 6 6 4 3 3 3 3 2 2 1 1 2
1 1 2 2 1 2 1 1 2 2 3 1 2 1 2 2 2 2 2 3 3 4 4 5 6 7 7 7 7 7 7 7 6 6 5 5 4 3 3 2 2 2 2 2
2 1 1 2 1 2 1 1 2 3 3 3 3 2 2 3 1 1 2 3 3 4 5 5 6 6 6 6 6 6 6 6 6 6 6 6 4 3 2 2 3 2 2 2
1 1 1 1 0 1 3 3 2 3 4 3 1 3 1 1 1 1 1 2 3 4 4 5 5 5 5 5 5 6 6 6 6 6 6 6 5 4 3 3 3 2 2 2
3 3 2 2 2 3 3 3 2 3 3 1 0 2 0 1 1 2 2 2 3 3 4 5 5 5 5 6 6 6 7 6 6 7 7 6 6 5 4 4 3 3 2 2
4 3 3 2 3 3 3 4 3 2 1 1 2 2 1 2 1 0 1 2 3 3 4 4 5 5 5 6 6 6 7 6 7 7 6 6 5 4 3 3 3 3 2 2
3 2 3 1 2 3 3 3 3 4 3 3 2 1 2 2 1 1 1 2 3 3 4 4 4 5 5 6 6 6 7 7 7 7 6 6 5 4 4 3 3 2 2 2
2 2 2 2 4 2 3 2 3 3 3 3 2 3 2 1 1 1 0 1 2 3 3 4 4 4 4 5 5 6 6 6 6 6 5 4 5 5 4 3 3 3 2 2
3 3 3 4 4 3 3 4 3 3 4 4 2 1 1 1 0 1 1 1 1 3 3 4 4 4 4 4 5 5 5 5 5 6 6 5 5 5 5 4 3 3 3 3
2 3 3 4 2 3 5 5 5 4 3 4 4 1 3 1 1 1 1 1 0 1 3 3 4 4 4 4 4 5 5 5 5 5 6 5 5 5 4 4 4 3 3 3
2 3 3 4 4 4 4 5 5 5 5 5 5 2 3 1 0 0 1 1 0 1 2 3 4 4 3 3 4 4 4 5 5 5 5 5 5 5 5 4 4 4 4 3
3 4 5 4 2 2 4 6 7 7 6 6 7 6 3 2 2 1 1 1 1 1 2 3 3 3 3 3 3 4 4 4 5 5 6 6 6 5 5 5 4 4 4 4
3 5 6 7 6 6 8 8 9 10 9 9 7 7 6 4 3 3 2 2 1 2 2 3 3 3 3 3 3 3 3 4 5 6 6 6 5 5 5 5 5 4 4 4
3 4 5 7 6 7 9 10 10 11 11 11 11 10 5 3 3 3 3 3 3 3 3 3 3 3 3 3 4 4 4 4 5 6 6 5 5 5 5 5 5 5 5 4
3 4 5 6 5 7 9 9 10 9 9 9 10 6 3 3 4 3 3 3 3 3 3 2 2 2 2 3 3 4 4 5 5 6 6 5 6 6 6 5 5 5 5 5
6 6 5 5 5 7 2 1 4 7 7 8 8 6 4 4 3 2 2 3 3 3 3 3 2 2 2 2 3 4 4 5 5 6 5 5 6 6 5 5 6 6 5 5
8 7 5 5 7 7 5 3 3 6 6 5 6 5 4 2 3 3 2 2 2 2 3 2 2 2 2 2 2 4 4 5 5 5 6 6 6 6 6 6 6 5 5 5
6 8 7 6 7 6 2 1 1 4 6 2 4 4 3 4 5 3 1 2 1 1 1 1 1 1 1 2 2 4 4 5 5 5 5 5 5 6 6 7 6 5 6 5
6 7 10 10 9 7 1 1 3 5 2 1 2 3 4 4 3 1 1 1 1 1 1 2 1 1 2 2 3 4 4 5 5 4 4 5 5 6 6 6 6 6 5 5
7 6 8 8 9 7 2 3 4 4 3 2 3 3 4 3 1 1 2 2 1 1 2 2 2 2 2 2 3 3 4 4 4 4 4 5 5 4 5 5 5 6 6 6
7 6 5 6 5 3 2 3 3 4 4 4 4 4 4 4 4 3 3 3 3 3 3 3 3 3 2 3 4 4 3 3 4 4 4 5 5 5 5 5 5 5 5 5
6 4 6 7 7 5 5 6 5 5 6 6 5 5 5 5 5 5 4 4 4 4 4 4 4 4 3 3 4 4 3 3 4 5 5 4 5 5 5 4 4 4 5 5
6 5 7 10 9 7 7 7 7 6 6 6 6 6 6 6 6 6 6 5 5 4 4 4 4 4 4 4 4 4 3 3 4 5 4 4 4 4 4 4 3 4 4 4
8 9 9 10 8 7 7 6 7 7 7 7 7 7 6 6 6 6 6 5 5 5 4 4 5 4 4 3 3 3 3 4 4 4 4 4 4 4 4 4 2 1 2 2
Wind_Direction
153 173 174 215 255 211 169 154 99 36 8 311 288 252 227 199 201 202 203 200 205 212 205 197 198 197 195 193 194 187 187 182 177 174 179 176 171 165 150 141 146 148 152 141
158 142 31 146 155 160 175 182 100 63 22 305 301 281 210 201 213 223 219 208 205 205 196 186 192 191 194 195 199 195 193 188 186 182 180 176 168 168 152 146 143 157 159 151
156 74 128 165 156 165 191 241 251 290 313 228 270 231 159 160 179 196 214 211 203 202 202 186 188 187 189 195 197 198 194 188 188 180 171 159 156 176 171 166 162 155 161 161
162 207 167 165 160 218 223 208 226 244 254 274 281 257 148 151 164 172 190 195 203 197 198 187 186 188 194 197 197 196 192 189 183 179 182 182 190 194 194 185 173 156 154 160
147 161 200 205 257 257 228 169 227 265 270 252 253 250 140 151 184 184 176 190 199 205 198 187 189 192 194 192 194 193 187 186 180 182 185 195 198 197 189 182 174 168 144 144
186 185 273 255 146 161 160 182 208 235 247 239 262 263 158 126 284 284 222 193 196 195 192 186 180 180 182 180 185 186 183 181 179 184 189 198 195 192 181 179 173 172 158 157
185 176 172 183 174 162 211 240 226 213 212 198 179 257 238 54 346 292 253 198 183 179 179 179 176 176 177 178 181 184 184 182 183 188 193 199 198 192 185 181 176 179 167 166
204 183 171 204 238 238 231 264 275 283 266 202 204 236 100 64 50 79 155 160 158 162 167 169 173 179 180 180 182 184 185 186 185 190 195 197 189 191 183 184 177 180 175 169
222 180 150 198 251 243 231 241 282 279 273 264 214 195 167 133 97 77 108 149 162 168 169 168 170 176 177 179 182 185 185 185 185 189 190 188 184 184 179 182 181 175 169 160
260 231 186 189 202 211 266 250 236 248 266 257 235 227 226 192 324 0 10 219 194 183 179 173 170 172 172 172 173 177 185 187 182 183 182 182 185 183 182 179 176 175 168 155
255 240 199 195 225 232 207 214 229 247 272 281 268 200 68 199 244 283 298 293 212 197 188 178 175 171 162 160 165 170 178 182 179 180 181 179 185 185 180 180 180 183 176 170
243 258 235 223 216 268 249 246 238 253 251 265 279 274 103 138 175 258 288 316 160 181 186 177 169 163 162 159 164 170 176 176 178 181 180 182 181 182 183 182 184 188 185 184
194 239 238 203 190 196 219 225 236 253 260 254 257 236 119 133 165 284 301 322 62 148 166 170 167 166 166 162 163 169 173 170 170 175 179 181 184 188 192 192 191 195 193 185
243 241 255 269 308 250 241 231 230 240 252 256 255 264 242 251 264 267 274 280 213 155 158 167 173 178 177 175 172 171 172 169 168 171 177 185 191 193 197 197 198 201 197 191
253 256 256 269 274 262 262 258 246 246 256 265 269 269 272 269 258 246 231 213 192 168 171 174 180 182 183 182 183 178 178 176 176 178 183 189 192 193 197 196 202 201 199 201
261 260 258 255 252 254 261 259 251 251 254 255 263 269 275 267 239 231 223 205 199 192 191 184 186 187 191 195 197 191 189 186 184 188 193 189 190 191 198 199 200 202 204 204
227 247 260 260 258 261 256 249 240 241 241 246 255 264 257 240 237 235 226 209 211 207 207 201 196 202 215 214 215 210 200 190 188 190 188 187 191 192 197 196 196 202 203 201
235 242 256 266 252 249 267 105 242 241 248 249 255 265 259 255 251 246 229 214 225 224 217 215 216 207 222 228 221 217 202 196 193 190 189 191 192 195 196 198 201 205 203 199
233 235 242 250 256 265 249 219 227 241 254 249 249 254 255 245 220 225 223 226 241 230 219 216 229 222 217 226 217 203 197 197 196 198 200 198 196 195 197 199 204 205 204 203
211 225 236 239 251 253 271 115 252 251 248 228 238 246 233 219 241 245 190 218 238 239 218 218 228 242 229 233 219 206 205 207 209 209 211 204 200 201 204 206 206 204 204 206
199 211 226 239 249 258 316 120 194 234 296 47 255 249 228 240 289 330 188 213 229 226 224 223 225 241 250 237 213 212 212 219 219 215 215 212 207 208 207 205 200 200 201 202
226 222 224 231 240 248 129 170 221 295 348 302 267 252 241 253 280 226 216 228 246 245 233 227 235 250 253 231 218 225 228 229 220 215 214 214 208 201 196 195 197 199 195 198
231 238 244 238 259 345 206 242 302 317 293 290 276 263 245 244 245 243 237 238 247 246 237 234 237 240 247 233 224 236 242 232 217 209 210 208 201 192 187 187 188 192 193 200
229 240 242 250 257 269 266 268 279 283 282 286 279 266 252 248 244 242 243 242 245 243 240 236 235 235 242 242 233 241 246 233 217 211 208 201 197 189 184 185 188 192 197 201
240 220 242 254 267 274 264 266 278 283 281 279 275 268 258 251 246 244 245 244 246 241 239 236 239 243 248 248 239 239 236 226 220 214 206 202 197 187 184 184 191 198 200 201
233 235 245 257 264 266 277 288 285 277 272 270 272 271 261 248 248 248 248 243 241 240 239 238 239 244 248 246 237 238 236 230 225 216 206 201 193 186 187 184 181 145 211 166
Height
1527 1527 1527 1527 1526 1527 1528 1530 1532 1533 1532 1533 1532 1533 1533 1535 1536 1537 1538 1539 1540 1542 1543 1545 1546 1547 1549 1551 1552 1554 1555 1556 1557 1558 1559 1560 1560 1561 1561 1561 1562 1562 1562 1562
1526 1528 1527 1527 1528 1528 1529 1531 1532 1532 1532 1532 1532 1532 1531 1533 1534 1536 1536 1537 1539 1540 1542 1543 1544 1546 1548 1549 1551 1553 1554 1555 1556 1557 1558 1559 1560 1560 1561 1561 1561 1561 1562 1562
1526 1529 1528 1528 1528 1530 1530 1532 1533 1534 1533 1530 1532 1532 1530 1531 1534 1535 1536 1537 1537 1539 1540 1541 1543 1544 1546 1548 1549 1551 1552 1554 1555 1556 1557 1558 1559 1559 1560 1560 1560 1561 1561 1561
1527 1528 1529 1528 1529 1528 1532 1531 1532 1533 1532 1533 1533 1537 1529 1529 1531 1532 1534 1535 1536 1537 1539 1540 1541 1542 1544 1546 1548 1549 1551 1552 1554 1555 1556 1557 1558 1559 1559 1560 1560 1560 1560 1560
1528 1529 1528 1529 1529 1529 1530 1531 1531 1531 1530 1532 1530 1533 1529 1527 1529 1529 1531 1533 1535 1536 1537 1538 1539 1541 1543 1544 1546 1548 1549 1551 1552 1554 1555 1556 1557 1558 1558 1559 1559 1559 1559 1559
1528 1529 1529 1529 1529 1530 1530 1531 1532 1530 1529 1537 1532 1533 1533 1526 1527 1527 1529 1531 1533 1534 1535 1537 1538 1540 1541 1543 1544 1546 1548 1549 1551 1552 1554 1555 1556 1557 1557 1558 1558 1558 1559 1558
1528 1528 1529 1530 1529 1530 1529 1531 1537 1538 1537 1536 1529 1532 1530 1524 1525 1527 1528 1529 1531 1532 1534 1535 1536 1538 1539 1541 1542 1544 1546 1548 1549 1551 1552 1554 1555 1556 1556 1557 1557 1557 1558 1558
1530 1531 1528 1528 1528 1528 1528 1529 1538 1543 1539 1533 1530 1530 1525 1524 1526 1527 1528 1529 1530 1531 1533 1534 1535 1536 1538 1539 1541 1543 1544 1546 1547 1549 1551 1552 1553 1554 1555 1555 1556 1556 1557 1557
1527 1529 1527 1529 1528 1527 1528 1528 1527 1531 1531 1534 1528 1525 1523 1523 1525 1526 1527 1528 1529 1530 1532 1533 1534 1535 1537 1538 1539 1541 1543 1545 1546 1548 1549 1551 1552 1552 1553 1554 1555 1555 1555 1555
1524 1529 1527 1528 1528 1528 1526 1526 1528 1532 1538 1538 1532 1529 1526 1523 1523 1524 1525 1527 1528 1530 1531 1532 1533 1534 1536 1537 1539 1540 1542 1543 1545 1546 1547 1549 1550 1551 1552 1552 1553 1554 1554 1554
1525 1527 1528 1527 1527 1527 1528 1528 1527 1528 1529 1534 1536 1530 1519 1521 1523 1524 1525 1526 1527 1529 1530 1531 1532 1533 1534 1536 1537 1539 1540 1542 1543 1544 1546 1547 1548 1549 1550 1551 1551 1552 1553 1553
1527 1526 1527 1526 1526 1527 1526 1525 1526 1531 1531 1529 1530 1529 1519 1521 1523 1524 1525 1526 1527 1528 1529 1530 1531 1532 1533 1535 1536 1538 1539 1540 1541 1543 1544 1545 1546 1548 1549 1549 1550 1551 1551 1552
1528 1528 1530 1529 1530 1528 1526 1526 1526 1525 1526 1527 1530 1527 1519 1521 1523 1524 1525 1526 1526 1527 1528 1529 1530 1531 1532 1533 1535 1536 1537 1538 1539 1541 1542 1544 1545 1546 1547 1548 1548 1549 1550 1550
1530 1525 1528 1531 1526 1524 1525 1526 1525 1526 1526 1525 1523 1521 1518 1519 1522 1524 1525 1526 1526 1527 1527 1528 1529 1530 1531 1532 1533 1535 1536 1537 1538 1539 1540 1541 1543 1544 1545 1546 1547 1547 1548 1548
1528 1525 1523 1523 1524 1525 1524 1524 1524 1524 1521 1522 1518 1518 1516 1518 1521 1523 1524 1525 1526 1526 1527 1527 1528 1529 1530 1531 1532 1533 1534 1535 1536 1537 1538 1539 1541 1542 1543 1544 1544 1545 1546 1546
1527 1526 1525 1525 1524 1524 1524 1521 1521 1521 1519 1518 1518 1517 1515 1518 1520 1521 1523 1524 1524 1525 1526 1527 1527 1528 1528 1529 1530 1531 1532 1533 1534 1535 1536 1537 1538 1539 1540 1541 1542 1542 1543 1544
1526 1525 1526 1524 1523 1524 1522 1515 1516 1516 1514 1515 1515 1514 1515 1517 1519 1520 1521 1522 1523 1524 1525 1525 1526 1526 1527 1528 1528 1529 1530 1530 1531 1532 1533 1534 1536 1537 1538 1538 1539 1539 1540 1541
1525 1525 1524 1523 1524 1530 1513 1511 1512 1513 1513 1512 1512 1513 1515 1516 1518 1519 1520 1520 1521 1522 1523 1524 1525 1525 1525 1525 1526 1527 1527 1528 1528 1529 1530 1531 1532 1533 1535 1535 1536 1536 1537 1538
1525 1524 1524 1524 1523 1517 1510 1511 1513 1513 1511 1510 1511 1512 1514 1516 1517 1517 1518 1519 1520 1520 1521 1522 1523 1523 1523 1523 1523 1524 1525 1525 1525 1526 1527 1528 1529 1530 1531 1532 1533 1534 1534 1535
1524 1523 1523 1523 1525 1521 1510 1510 1512 1512 1510 1509 1510 1512 1513 1514 1512 1513 1516 1517 1518 1518 1519 1520 1520 1521 1521 1520 1521 1521 1522 1522 1523 1523 1524 1525 1525 1526 1527 1529 1530 1530 1531 1532
1520 1521 1521 1520 1519 1511 1508 1511 1513 1515 1509 1510 1510 1511 1512 1512 1512 1514 1515 1515 1516 1516 1517 1517 1518 1518 1518 1518 1518 1518 1519 1519 1520 1520 1521 1521 1522 1523 1524 1525 1526 1527 1528 1529
1514 1515 1516 1516 1518 1514 1509 1511 1511 1509 1509 1509 1510 1511 1511 1512 1512 1513 1513 1513 1514 1514 1515 1515 1515 1515 1515 1515 1515 1516 1515 1516 1516 1517 1517 1517 1518 1519 1520 1521 1522 1523 1524 1525
1511 1510 1509 1510 1509 1508 1509 1509 1510 1510 1509 1509 1509 1509 1510 1510 1510 1511 1511 1511 1512 1512 1512 1512 1512 1512 1512 1512 1512 1513 1513 1512 1512 1512 1513 1513 1514 1515 1516 1517 1518 1519 1520 1521
1509 1512 1510 1508 1505 1508 1508 1508 1508 1508 1508 1507 1507 1507 1507 1507 1507 1508 1508 1508 1509 1509 1509 1509 1509 1509 1509 1509 1509 1509 1509 1509 1509 1509 1509 1510 1510 1511 1512 1513 1514 1514 1515 1516
1507 1509 1507 1505 1504 1506 1505 1505 1505 1505 1504 1504 1504 1504 1504 1504 1504 1504 1504 1505 1505 1506 1506 1506 1506 1506 1505 1505 1505 1506 1506 1505 1505 1505 1506 1506 1507 1508 1508 1509 1510 1511 1512 1513
1505 1505 1504 1501 1501 1502 1501 1502 1502 1501 1501 1501 1500 1500 1500 1500 1500 1501 1501 1501 1502 1502 1502 1502 1502 1502 1502 1502 1502 1502 1502 1502 1502 1502 1502 1503 1503 1504 1505 1506 1507 1507 1508 1509